Location: Madrid
(40.4000°N, 3.6830°W)
Time: 22:53:08
(UTC+02:00)

ISS - Pass Details

Date: 25 July 2017
Orbit: 400 x 408 km, 51.6° (Epoch: 24 July)

Event Time Altitude Azimuth Distance (km) Brightness Sun altitude
Rises 01:40:25 0° 299° (WNW) 2,311 0.5 -29.2°
Reaches altitude 10° 01:43:38 10° 333° (NNW) 1,453 -0.2 -29.3°
Maximum altitude 01:44:53 12° 356° (N) 1,354 -0.3 -29.3°
Drops below altitude 10° 01:46:09 10° 19° (NNE) 1,454 -0.3 -29.4°
Sets 01:49:22 0° 54° (NE) 2,315 0.4 -29.5°
